| time (UTC) | temp F | wind direction | speed knots | gust knots | rain 1hr in | rain 24hr in | rain mn in | humidity % | barometer mb |
| 20260506163614 | 61 | 247 | 0.9 | 1.7 | 0.00 | 0.00 | 0.00 | 100 | 1111.4 |
| 20260506161615 | 60 | 117 | 0.0 | 1.7 | 0.00 | 0.00 | 0.00 | 100 | 1111.4 |
| 20260506160632 | 59 | 112 | 0.0 | 0.0 | 0.00 | 0.00 | 0.00 | 100 | 1111.4 |
| 20260506154714 | 58 | 112 | 0.0 | 0.0 | 0.00 | 0.00 | 0.00 | 100 | 1111.4 |
| 20260506153715 | 58 | 112 | 0.0 | 0.0 | 0.00 | 0.00 | 0.00 | 100 | 1111.0 |
| 20260506151716 | 57 | 22 | 0.0 | 0.0 | 0.00 | 0.00 | 0.00 | 100 | 1111.0 |
| 20260506150717 | 56 | 22 | 0.0 | 0.0 | 0.00 | 0.00 | 0.00 | 100 | 1111.0 |
| 20260506144816 | 55 | 22 | 0.0 | 0.0 | 0.00 | 0.00 | 0.00 | 100 | 1110.6 |
| 20260506143817 | 55 | 22 | 0.0 | 0.0 | 0.00 | 0.00 | 0.00 | 100 | 1110.6 |
| 20260506142815 | 54 | 22 | 0.0 | 0.0 | 0.00 | 0.00 | 0.00 | 100 | 1110.6 |
| 20260506141814 | 54 | 22 | 0.0 | 0.0 | 0.00 | 0.00 | 0.00 | 100 | 1110.6 |
| 20260506140816 | 54 | 22 | 0.0 | 0.0 | 0.00 | 0.00 | 0.00 | 100 | 1110.6 |
| 20260506135816 | 54 | 22 | 0.0 | 0.0 | 0.00 | 0.00 | 0.00 | 100 | 1110.6 |
| 20260506134815 | 53 | 22 | 0.0 | 0.0 | 0.00 | 0.00 | 0.00 | 100 | 1110.3 |
| 20260506133815 | 53 | 22 | 0.0 | 0.0 | 0.00 | 0.00 | 0.00 | 100 | 1110.3 |
| 20260506132816 | 53 | 22 | 0.0 | 0.0 | 0.00 | 0.00 | 0.00 | 100 | 1110.3 |
| 20260506131817 | 53 | 22 | 0.0 | 0.0 | 0.00 | 0.00 | 0.00 | 100 | 1110.3 |
| 20260506130816 | 53 | 29 | 0.0 | 0.0 | 0.00 | 0.00 | 0.00 | 100 | 1110.3 |
| 20260506125915 | 53 | 45 | 0.0 | 0.0 | 0.00 | 0.00 | 0.00 | 100 | 1110.3 |
| 20260506124917 | 53 | 45 | 0.0 | 0.0 | 0.00 | 0.00 | 0.00 | 100 | 1109.9 |
| 20260506123015 | 53 | 45 | 0.0 | 0.0 | 0.00 | 0.00 | 0.00 | 100 | 1109.8 |
| 20260506121017 | 53 | 45 | 0.0 | 0.0 | 0.00 | 0.00 | 0.00 | 100 | 1109.9 |
| 20260506120014 | 53 | 45 | 0.0 | 0.0 | 0.00 | 0.00 | 0.00 | 100 | 1109.9 |
| 20260506115018 | 53 | 45 | 0.0 | 0.0 | 0.00 | 0.00 | 0.00 | 100 | 1109.9 |
| 20260506114015 | 53 | 45 | 0.0 | 0.0 | 0.00 | 0.01 | 0.00 | 100 | 1109.9 |
| 20260506113015 | 53 | 45 | 0.0 | 0.0 | 0.00 | 0.01 | 0.00 | 100 | 1109.4 |
| 20260506112016 | 53 | 45 | 0.0 | 0.0 | 0.00 | 0.01 | 0.00 | 100 | 1109.4 |
| 20260506111017 | 53 | 45 | 0.0 | 0.0 | 0.00 | 0.01 | 0.00 | 100 | 1109.4 |
| 20260506110015 | 53 | 45 | 0.0 | 0.0 | 0.00 | 0.01 | 0.00 | 100 | 1109.4 |
| 20260506105016 | 53 | 45 | 0.0 | 0.0 | 0.00 | 0.01 | 0.00 | 100 | 1109.4 |
| 20260506104017 | 53 | 45 | 0.0 | 0.0 | 0.00 | 0.01 | 0.00 | 100 | 1109.1 |
| 20260506103016 | 53 | 45 | 0.0 | 0.0 | 0.00 | 0.01 | 0.00 | 100 | 1109.1 |
| 20260506102015 | 53 | 45 | 0.0 | 0.0 | 0.00 | 0.01 | 0.00 | 100 | 1109.1 |
| 20260506101017 | 53 | 45 | 0.0 | 0.0 | 0.00 | 0.01 | 0.00 | 100 | 1109.1 |
| 20260506100026 | 53 | 67 | 0.9 | 1.7 | 0.00 | 0.01 | 0.00 | 100 | 1109.1 |
| 20260506095017 | 53 | 67 | 0.0 | 0.0 | 0.00 | 0.01 | 0.00 | 100 | 1109.1 |
| 20260506094016 | 53 | 67 | 0.0 | 0.0 | 0.00 | 0.01 | 0.00 | 100 | 1109.1 |
| 20260506093114 | 53 | 67 | 0.0 | 0.0 | 0.00 | 0.01 | 0.00 | 100 | 1109.1 |
| 20260506092115 | 53 | 67 | 0.0 | 0.0 | 0.00 | 0.02 | 0.00 | 100 | 1109.1 |
| 20260506091117 | 53 | 67 | 0.0 | 0.0 | 0.00 | 0.02 | 0.00 | 100 | 1109.1 |
| 20260506090116 | 53 | 67 | 0.0 | 0.0 | 0.00 | 0.02 | 0.00 | 100 | 1109.1 |
| 20260506085117 | 53 | 90 | 0.9 | 1.7 | 0.00 | 0.02 | 0.00 | 100 | 1109.1 |
| 20260506083116 | 54 | 90 | 0.9 | 1.7 | 0.00 | 0.03 | 0.00 | 100 | 1109.1 |
| 20260506082116 | 54 | 90 | 0.9 | 1.7 | 0.00 | 0.03 | 0.00 | 100 | 1109.1 |
| 20260506081116 | 54 | 90 | 0.9 | 1.7 | 0.00 | 0.03 | 0.00 | 100 | 1109.1 |
| 20260506080118 | 54 | 292 | 0.0 | 0.0 | 0.00 | 0.03 | 0.00 | 100 | 1109.1 |
| 20260506073215 | 54 | 270 | 0.9 | 1.7 | 0.00 | 0.03 | 0.00 | 100 | 1109.1 |
| 20260506072216 | 54 | 292 | 0.9 | 1.7 | 0.00 | 0.03 | 0.00 | 100 | 1108.7 |
| 20260506071216 | 54 | 292 | 0.9 | 1.7 | 0.00 | 0.04 | 0.00 | 100 | 1108.7 |
| 20260506070215 | 54 | 270 | 0.9 | 1.7 | 0.00 | 0.05 | 0.00 | 100 | 1108.7 |
| 20260506062320 | 55 | 90 | 0.9 | 1.7 | 0.00 | 0.09 | 0.06 | 100 | 1108.3 |
| 20260506061419 | 55 | 90 | 0.0 | 0.0 | 0.00 | 0.10 | 0.06 | 100 | 1108.3 |
| 20260506060419 | 55 | 90 | 0.0 | 0.0 | 0.00 | 0.10 | 0.06 | 100 | 1108.3 |
| 20260506050520 | 56 | 45 | 0.0 | 0.0 | 0.00 | 0.15 | 0.06 | 100 | 1107.5 |
| 20260506044618 | 56 | 225 | 0.0 | 0.0 | 0.00 | 0.15 | 0.06 | 100 | 1107.5 |
| 20260506043619 | 56 | 225 | 0.0 | 0.0 | 0.00 | 0.15 | 0.06 | 100 | 1107.5 |
| 20260506041619 | 56 | 225 | 0.0 | 0.0 | 0.00 | 0.16 | 0.06 | 100 | 1107.1 |
| 20260506035620 | 56 | 157 | 0.0 | 0.0 | 0.00 | 0.18 | 0.06 | 100 | 1106.8 |
| 20260506034618 | 56 | 112 | 0.0 | 0.0 | 0.00 | 0.21 | 0.06 | 100 | 1107.1 |
| 20260506033621 | 56 | 112 | 0.0 | 0.0 | 0.00 | 0.22 | 0.06 | 100 | 1106.8 |
| 20260506030621 | 56 | 112 | 0.0 | 0.0 | 0.00 | 0.26 | 0.06 | 100 | 1106.4 |
| 20260506025621 | 57 | 112 | 0.0 | 0.0 | 0.00 | 0.28 | 0.06 | 100 | 1106.0 |
| 20260506024720 | 57 | 112 | 0.0 | 0.9 | 0.00 | 0.30 | 0.06 | 100 | 1106.0 |
| 20260506022819 | 57 | 101 | 0.0 | 1.7 | 0.00 | 0.32 | 0.06 | 100 | 1106.0 |
| 20260506021819 | 57 | 90 | 0.9 | 1.7 | 0.00 | 0.32 | 0.06 | 100 | 1106.0 |
| 20260506020819 | 57 | 97 | 1.7 | 3.5 | 0.00 | 0.32 | 0.06 | 100 | 1105.6 |
| 20260506015820 | 57 | 90 | 0.9 | 1.7 | 0.00 | 0.33 | 0.06 | 100 | 1106.0 |
| 20260506014820 | 57 | 90 | 0.9 | 2.6 | 0.00 | 0.34 | 0.06 | 100 | 1106.0 |
| 20260506013822 | 58 | 90 | 1.7 | 2.6 | 0.00 | 0.35 | 0.06 | 100 | 1106.0 |
| 20260506011820 | 58 | 80 | 0.9 | 3.5 | 0.00 | 0.35 | 0.06 | 100 | 1106.0 |
| 20260506005920 | 58 | 83 | 0.9 | 2.6 | 0.00 | 0.35 | 0.06 | 100 | 1106.0 |
| 20260506003019 | 58 | 99 | 0.9 | 1.7 | 0.00 | 0.36 | 0.06 | 100 | 1105.9 |
| 20260506002022 | 58 | 90 | 0.9 | 1.7 | 0.00 | 0.36 | 0.06 | 100 | 1106.0 |
| 20260506001022 | 58 | 90 | 0.9 | 1.7 | 0.00 | 0.37 | 0.06 | 100 | 1105.7 |
| 20260506000118 | 58 | 111 | 0.9 | 2.6 | 0.00 | 0.38 | 0.06 | 100 | 1105.7 |
| 20260505235218 | 58 | 112 | 0.9 | 1.7 | 0.00 | 0.40 | 0.06 | 100 | 1105.7 |
| 20260505234234 | 58 | 106 | 0.9 | 2.6 | 0.00 | 0.41 | 0.06 | 100 | 1105.7 |
| 20260505233221 | 58 | 112 | 0.9 | 1.7 | 0.00 | 0.42 | 0.06 | 100 | 1105.7 |
| 20260505232221 | 58 | 95 | 1.7 | 3.5 | 0.00 | 0.43 | 0.06 | 100 | 1105.7 |
| 20260505231220 | 58 | 112 | 0.9 | 1.7 | 0.00 | 0.44 | 0.06 | 100 | 1105.7 |
| 20260505230219 | 58 | 111 | 0.9 | 1.7 | 0.00 | 0.46 | 0.06 | 100 | 1105.7 |
| 20260505225220 | 58 | 135 | 0.9 | 1.7 | 0.00 | 0.47 | 0.06 | 100 | 1105.7 |
| 20260505224221 | 58 | 101 | 0.9 | 2.6 | 0.00 | 0.48 | 0.06 | 100 | 1105.7 |
| 20260505223319 | 58 | 112 | 0.0 | 1.7 | 0.00 | 0.49 | 0.06 | 100 | 1105.7 |
| 20260505222320 | 58 | 157 | 0.0 | 0.0 | 0.00 | 0.50 | 0.06 | 100 | 1105.7 |
| 20260505221319 | 57 | 157 | 0.0 | 1.7 | 0.00 | 0.51 | 0.06 | 100 | 1106.0 |
| 20260505220320 | 58 | 157 | 0.9 | 1.7 | 0.00 | 0.52 | 0.06 | 100 | 1106.0 |
| 20260505215320 | 57 | 168 | 0.9 | 1.7 | 0.00 | 0.52 | 0.06 | 100 | 1106.0 |
| 20260505214321 | 57 | 225 | 0.0 | 0.0 | 0.00 | 0.52 | 0.06 | 100 | 1106.0 |
| 20260505213320 | 57 | 136 | 0.0 | 0.9 | 0.00 | 0.53 | 0.06 | 100 | 1106.0 |
| 20260505212418 | 57 | 135 | 0.9 | 1.7 | 0.00 | 0.54 | 0.06 | 100 | 1106.0 |
| 20260505211420 | 57 | 180 | 0.0 | 0.9 | 0.00 | 0.54 | 0.06 | 100 | 1106.0 |
| 20260505210420 | 57 | 270 | 0.0 | 0.9 | 0.00 | 0.54 | 0.06 | 100 | 1106.0 |
| 20260505204419 | 58 | 220 | 0.9 | 1.7 | 0.00 | 0.55 | 0.06 | 100 | 1106.0 |
| 20260505203519 | 59 | 135 | 0.9 | 1.7 | 0.00 | 0.55 | 0.06 | 100 | 1106.0 |
| 20260505202520 | 59 | 242 | 0.9 | 1.7 | 0.00 | 0.55 | 0.06 | 100 | 1106.0 |
| 20260505201519 | 58 | 272 | 0.9 | 1.7 | 0.00 | 0.55 | 0.06 | 100 | 1106.0 |
| 20260505200521 | 59 | 270 | 0.9 | 3.5 | 0.00 | 0.56 | 0.06 | 100 | 1106.0 |
| 20260505195522 | 59 | 247 | 0.0 | 1.7 | 0.00 | 0.56 | 0.06 | 100 | 1106.0 |
| 20260505194519 | 60 | 135 | 0.9 | 1.7 | 0.00 | 0.56 | 0.06 | 100 | 1106.4 |
| 20260505193519 | 60 | 262 | 0.9 | 1.7 | 0.00 | 0.56 | 0.06 | 100 | 1106.4 |
| 20260505192519 | 61 | 204 | 0.9 | 2.6 | 0.00 | 0.56 | 0.06 | 100 | 1106.0 |
| 20260505190522 | 58 | 180 | 0.0 | 1.7 | 0.00 | 0.56 | 0.06 | 100 | 1106.0 |
| 20260505185619 | 59 | 157 | 0.0 | 1.7 | 0.00 | 0.57 | 0.06 | 100 | 1106.0 |
| 20260505184620 | 59 | 157 | 0.0 | 1.7 | 0.00 | 0.57 | 0.06 | 100 | 1106.0 |
| 20260505183620 | 57 | 180 | 0.0 | 0.0 | 0.00 | 0.59 | 0.06 | 100 | 1106.0 |
| 20260505182620 | 56 | 225 | 0.9 | 1.7 | 0.00 | 0.59 | 0.06 | 100 | 1106.0 |
| 20260505175719 | 55 | 135 | 0.9 | 1.7 | 0.00 | 0.60 | 0.06 | 100 | 1105.7 |
| 20260505173738 | 55 | 135 | 0.9 | 1.7 | 0.00 | 0.60 | 0.06 | 100 | 1105.3 |
| 20260505172818 | 55 | 157 | 0.0 | 1.7 | 0.00 | 0.60 | 0.06 | 100 | 1105.3 |
| 20260505171820 | 54 | 202 | 0.0 | 1.7 | 0.00 | 0.60 | 0.06 | 100 | 1105.3 |
| 20260505170823 | 53 | 180 | 0.0 | 1.7 | 0.00 | 0.60 | 0.06 | 100 | 1105.3 |
| 20260505165819 | 53 | 284 | 0.0 | 0.9 | 0.00 | 0.60 | 0.06 | 100 | 1105.3 |
| 20260505164821 | 53 | 157 | 0.9 | 1.7 | 0.00 | 0.61 | 0.06 | 100 | 1104.9 |